Location: Unspecified
(0.0000°N, 0.0000°E)
Time: 12:10:37
(UTC+00:00)

Transit 2A Rocket - Pass Details

Date: 19 December 2018
Orbit: 588 x 915 km, 66.7° (Epoch: 15 July)

Event Time Altitude Azimuth Distance (km) Brightness Sun altitude
Rises 18:21:09 0° 320° (NW) 3,532 8.7 -5.5°
Reaches altitude 10° 18:23:59 10° 309° (NW) 2,596 8.1 -6.1°
Maximum altitude 18:29:10 29° 251° (WSW) 1,582 7.7 -7.3°
Drops below altitude 10° 18:34:15 10° 192° (SSW) 2,537 8.2 -8.5°
Sets 18:37:00 0° 181° (S) 3,438 8.7 -9.1°
